TimeCDT,TemperatureF,Dew PointF,Humidity,Sea Level PressureIn,VisibilityMPH,Wind Direction,Wind SpeedMPH,Gust SpeedMPH,PrecipitationIn,Events,Conditions,WindDirDegrees,DateUTC
12:52 AM,63.0,52.0,67,30.09,10.0,North,12.7,-,N/A,,Overcast,360,2013-04-04 05:52:00
1:52 AM,61.0,51.1,70,30.09,10.0,North,15.0,-,N/A,,Overcast,350,2013-04-04 06:52:00
2:52 AM,59.0,50.0,72,30.09,10.0,NNW,12.7,-,N/A,,Overcast,340,2013-04-04 07:52:00
3:52 AM,59.0,50.0,72,30.09,10.0,NNW,13.8,-,N/A,,Overcast,340,2013-04-04 08:52:00
4:48 AM,57.2,50.0,77,30.10,10.0,NNW,13.8,-,N/A,,Overcast,330,2013-04-04 09:48:00
4:52 AM,57.9,50.0,75,30.10,10.0,NNW,15.0,-,N/A,,Overcast,330,2013-04-04 09:52:00
5:52 AM,57.0,48.0,72,30.10,10.0,NNW,17.3,-,N/A,,Overcast,340,2013-04-04 10:52:00
6:52 AM,55.9,48.0,75,30.11,10.0,NNW,10.4,-,N/A,,Clear,340,2013-04-04 11:52:00
7:23 AM,55.4,48.2,77,30.12,10.0,NNW,9.2,-,N/A,,Clear,330,2013-04-04 12:23:00
7:52 AM,55.9,48.9,77,30.12,10.0,NNW,10.4,-,N/A,,Clear,330,2013-04-04 12:52:00
8:52 AM,61.0,48.9,64,30.13,10.0,North,16.1,-,N/A,,Clear,350,2013-04-04 13:52:00
9:52 AM,64.9,48.9,56,30.14,10.0,NNW,19.6,26.5,N/A,,Clear,340,2013-04-04 14:52:00
10:52 AM,69.1,48.0,47,30.15,10.0,NNW,11.5,18.4,N/A,,Clear,340,2013-04-04 15:52:00
11:52 AM,71.1,48.0,44,30.16,10.0,NW,12.7,-,N/A,,Clear,320,2013-04-04 16:52:00
1:52 PM,73.4,-9999,N/A,30.11,10.0,NNW,19.6,-,N/A,,Clear,340,2013-04-04 18:52:00
2:52 PM,75.2,-9999,N/A,30.07,10.0,North,13.8,-,N/A,,Clear,350,2013-04-04 19:52:00
3:45 PM,80.6,-9999,N/A,30.06,10.0,North,17.3,-,N/A,,Clear,350,2013-04-04 20:45:00
4:52 PM,80.6,-9999,N/A,30.04,10.0,NE,11.5,-,N/A,,Clear,50,2013-04-04 21:52:00
5:52 PM,78.8,-9999,N/A,30.03,10.0,East,11.5,-,N/A,,Clear,100,2013-04-04 22:52:00
7:52 PM,68.0,-9999,N/A,30.08,10.0,East,13.8,-,N/A,,Clear,100,2013-04-05 00:52:00
8:52 PM,66.2,-9999,N/A,30.09,10.0,ESE,11.5,-,N/A,,Clear,120,2013-04-05 01:52:00
9:52 PM,64.4,-9999,N/A,30.12,10.0,East,8.1,-,N/A,,Clear,100,2013-04-05 02:52:00
11:52 PM,62.6,-9999,N/A,30.16,10.0,East,5.8,-,N/A,,Clear,100,2013-04-05 04:52:00